Lid_Strength_Index
-0 -0 2 5 10 11 14 12 11 10 10 9 9 7 8 8 9 11 3 1 0 0 -0 -0 -1 -1 -1 -1 -1 -1 -2 -2 -2 -2 -1 -1 -1 -1 -2 -1 -1 -2 -2 -2 -2 -2 -2 -2 -2
0 1 4 7 12 16 14 11 10 9 8 7 8 10 8 10 5 5 4 1 -0 -0 -0 -0 -1 -1 -1 -1 -1 -2 -2 -1 -1 -1 -2 -1 -1 -1 -2 -1 -2 -2 -2 -2 -2 -2 -2 -2 -2
1 1 6 10 13 15 14 10 10 8 8 8 8 7 7 8 5 4 2 0 -0 0 -0 -0 -1 -1 -1 -1 -2 -2 -2 -2 -2 -2 -2 -1 -2 -2 -2 -1 -1 -2 -2 -2 -2 -2 -2 -2 -2
3 5 7 12 14 11 11 9 8 9 8 7 7 9 6 4 4 2 1 0 0 1 0 -1 -1 -1 -1 -1 -2 -2 -2 -2 -2 -2 -1 -1 -1 -2 -1 -1 -2 -2 -2 -2 -2 -2 -1 -1 -1
3 6 12 14 13 10 9 8 8 9 9 9 8 10 8 4 3 1 1 0 1 0 -0 -0 -1 -1 -1 -1 -2 -2 -2 -2 -2 -2 -1 -1 -1 -1 -1 -1 -2 -2 -2 -2 -2 -1 -1 -1 -1
7 7 14 15 13 10 8 8 9 9 9 9 8 8 8 3 3 1 1 1 0 0 -0 -0 -1 -1 -1 -1 -1 -2 -2 -2 -2 -2 -1 -1 -1 -1 -1 -1 -2 -2 -2 -2 -2 -1 -1 -1 -1
8 10 13 14 12 11 8 7 10 9 10 10 6 10 7 5 2 2 1 1 0 -0 -0 -0 -0 -1 -1 -1 -2 -2 -2 -2 -2 -2 -2 -1 -2 -1 -1 -1 -1 -2 -2 -2 -2 -1 -1 -1 -1
6 8 12 12 13 12 7 7 7 8 9 9 5 10 9 5 2 2 1 1 1 0 0 0 0 -0 0 -0 -1 -1 -1 -2 -2 -2 -1 -1 -1 -1 -2 -1 -2 -2 -2 -2 -1 -1 -1 -1 -1
4 12 13 12 11 10 7 8 5 6 9 6 6 6 4 3 2 3 3 3 2 1 1 0 1 0 0 0 -0 -1 -1 -1 -1 -1 -1 -0 0 -0 -0 -0 -1 -2 -2 -2 -1 -1 -1 -2 -2
8 11 11 8 8 9 8 8 7 8 8 8 7 4 3 3 3 4 4 4 4 3 2 1 1 0 0 -0 0 0 -0 0 1 0 0 1 1 1 -0 0 -1 -2 -1 -1 -1 -2 -2 -1 0
8 11 8 7 7 7 8 8 6 8 10 8 8 6 5 4 4 4 4 3 4 3 2 1 1 0 0 1 1 0 0 1 1 1 1 1 0 1 1 1 0 1 1 0 -0 0 0 1 2
10 8 7 7 6 7 8 7 8 8 9 7 5 4 5 5 4 4 4 4 3 3 2 2 2 1 1 1 0 1 1 1 1 1 1 3 1 1 1 1 1 1 1 1 1 2 2 2 2
9 8 7 6 7 7 6 8 8 8 7 7 5 5 5 5 4 4 3 3 4 3 2 2 1 2 2 1 1 2 1 1 0 0 1 2 1 2 1 1 1 1 1 1 1 2 2 3 4
7 7 7 7 8 7 8 8 8 8 8 9 8 8 8 6 4 4 3 3 3 3 3 2 1 1 3 3 3 3 2 0 0 0 1 1 2 3 1 1 2 2 1 0 0 1 2 2 4
7 10 8 8 8 9 8 10 10 8 8 9 10 9 8 7 7 5 4 3 3 2 2 2 2 1 1 2 3 3 3 1 0 0 1 1 3 3 3 2 2 3 2 2 1 1 1 3 3
9 10 14 9 8 8 9 14 9 8 9 9 10 10 9 7 7 7 6 4 4 3 2 2 1 1 2 2 1 2 2 2 1 1 1 1 2 3 3 3 2 3 3 2 2 2 2 3 4
11 15 14 11 8 8 10 13 9 8 9 10 10 9 9 9 8 8 7 8 7 6 5 2 2 1 1 2 2 1 2 1 1 1 2 2 2 3 2 2 2 2 3 3 3 3 3 4 5
15 14 13 12 10 9 10 12 9 9 10 9 9 9 9 10 8 8 8 8 7 7 7 7 8 5 2 2 2 2 2 2 1 1 1 1 2 2 3 3 3 3 3 3 3 4 4 5 5
11 12 13 11 9 10 11 11 9 8 11 11 10 9 9 9 10 9 9 9 7 7 7 7 7 7 7 7 4 3 3 3 3 2 1 1 1 2 2 3 3 3 3 3 3 3 4 4 6
11 13 13 11 9 10 11 11 9 9 10 10 10 10 10 10 10 8 8 7 6 6 6 6 6 6 7 6 6 4 2 3 2 2 2 2 2 1 2 3 3 3 4 4 3 4 4 4 6
13 13 13 13 11 11 12 14 12 11 11 10 10 10 10 10 10 9 9 7 6 6 6 5 5 5 6 7 6 6 5 3 2 2 2 2 2 2 2 2 2 2 3 3 4 4 4 3 6
15 10 10 11 13 16 11 18 15 12 12 11 12 12 11 10 9 8 8 7 6 6 6 6 6 6 5 6 7 8 8 7 5 3 1 1 0 1 1 2 2 1 2 3 3 3 3 4 3
12 9 10 11 13 14 14 17 16 15 14 13 12 12 11 10 8 8 7 7 6 6 7 7 6 6 7 7 6 7 7 7 7 7 6 6 4 2 0 0 2 3 2 2 2 3 4 3 3
9 11 11 12 13 19 15 16 18 16 14 13 13 11 10 9 8 7 7 7 7 7 7 7 7 7 7 7 7 7 7 7 7 6 6 6 5 3 3 2 1 2 3 3 3 2 3 2 2
10 13 19 20 20 20 14 16 15 13 12 12 12 11 10 9 8 7 7 8 8 8 7 6 7 7 7 7 7 7 6 6 6 6 6 5 5 5 5 4 3 3 3 2 2 3 3 3 3
12 13 19 22 21 19 15 18 14 12 12 11 10 10 10 9 9 8 7 8 8 7 7 7 7 8 8 8 7 7 7 7 6 6 6 6 6 6 5 5 4 3 3 3 3 3 3 3 3
13 15 13 17 18 21 17 15 13 12 13 11 11 10 9 8 8 7 7 7 8 7 7 8 8 8 9 9 9 9 9 9 9 9 8 8 7 6 6 6 5 5 4 4 3 3 2 3 2
11 10 16 18 22 21 19 18 16 14 13 11 11 10 9 7 7 7 7 7 7 7 8 9 9 9 9 10 10 10 10 10 10 10 10 10 9 8 7 7 7 7 7 6 5 5 5 3 3
13 14 14 14 17 20 21 19 14 12 11 11 10 10 9 7 7 8 9 8 8 9 10 10 10 10 11 10 10 10 10 10 11 11 11 11 10 10 10 9 9 9 9 9 8 8 8 7 7
11 13 12 17 19 20 20 18 12 12 11 9 9 8 8 7 8 9 9 9 9 10 10 10 10 10 10 10 10 11 11 11 12 12 11 11 11 11 11 10 10 10 10 10 10 10 10 9 9